This demonstration page uses our WeatherBlox Daily Observations layout. Learn more.

39.92423, -83.80882

Hourly Observations for April 21, 2017

Temp ( °F °C ) Dew Point ( °F °C ) Humidity (%) Winds ( mph kmh ) Pressure ( in mb ) Visibility ( mi km ) Precip ( " mm )
12:56 am 00:56 Cloudy with Light Rain 63 17.2 61 16.1 93 93 W 6 9 29.89 1012 10 16.0934 0 0.0254
1:56 am 01:56 Cloudy 64 17.8 61 16.1 90 90 W 8 13 29.89 1012 10 16.0934 0 0.0254
2:56 am 02:56 Cloudy 60 15.6 53 11.7 78 78 NW 9 15 29.89 1012 10 16.0934 0 0
3:56 am 03:56 Cloudy 57 13.9 51 10.6 81 81 WNW 13 20 29.91 1013 10 16.0934 0 0
4:56 am 04:56 Mostly Clear 54 12.2 47 8.3 77 77 WNW 10 17 29.94 1014 10 16.0934 0 0
5:56 am 05:56 Clear 51 10.6 44 6.7 77 77 W 10 17 29.96 1014 10 16.0934 0 0
6:56 am 06:56 Sunny 49 9.4 43 6.1 80 80 WNW 10 17 29.97 1015 10 16.0934 0 0
7:56 am 07:56 Sunny 50 10 43 6.1 77 77 WNW 13 20 30 1016 10 16.0934 0 0
8:56 am 08:56 Sunny 52 11.1 44 6.7 75 75 WNW 12 19 30 1016 10 16.0934 0 0
9:56 am 09:56 Mostly Sunny 52 11.1 44 6.7 75 75 WNW 13 20 30 1016 10 16.0934 0 0
10:43 am 10:43 Mostly Cloudy 55 13 45 7 67 67 W 15 24 30.03 1017 10 16.0934 0 0
10:56 am 10:56 Mostly Cloudy 54 12.2 44 6.7 69 69 WNW 13 20 30.02 1017 10 16.0934 0 0
11:53 am 11:53 Partly Cloudy 55 13 45 7 67 67 W 9 15 30.03 1017 10 16.0934 0 0
11:56 am 11:56 Partly Cloudy 55 12.8 44 6.7 67 67 WNW 10 17 30.02 1017 10 16.0934 0 0
12:11 pm 12:11 Mostly Cloudy 55 13 45 7 67 67 WNW 14 22 30.03 1017 10 16.0934 0 0
12:24 pm 12:24 Partly Cloudy 55 13 45 7 67 67 WNW 13 20 30.03 1017 10 16.0934 0 0
12:56 pm 12:56 Partly Cloudy 57 13.9 44 6.7 62 62 W 10 17 30.03 1017 10 16.0934 0 0
1:56 pm 13:56 Sunny 57 13.9 44 6.7 62 62 W 10 17 30.01 1016 10 16.0934 0 0
2:56 pm 14:56 Mostly Sunny 58 14.4 44 6.7 60 60 WNW 13 20 29.99 1016 10 16.0934 0 0
3:56 pm 15:56 Sunny 59 15 44 6.7 58 58 NW 12 19 29.97 1015 10 16.0934 0 0
4:56 pm 16:56 Sunny 61 16.1 44 6.7 54 54 NW 8 13 29.97 1015 10 16.0934 0 0
5:56 pm 17:56 Sunny 59 15 44 6.7 58 58 NNW 12 19 29.99 1016 10 16.0934 0 0
6:56 pm 18:56 Mostly Cloudy 57 13.9 43 6.1 60 60 NNW 13 20 30 1016 10 16.0934 0 0
7:56 pm 19:56 Cloudy 55 12.8 42 5.6 62 62 NNW 10 17 30.02 1017 10 16.0934 0 0
8:56 pm 20:56 Cloudy 52 11.1 42 5.6 69 69 N 15 24 30.03 1017 10 16.0934 0 0.0254
9:56 pm 21:56 Cloudy 51 10.6 40 4.4 66 66 N 10 17 30.04 1017 10 16.0934 0 0.0254
10:56 pm 22:56 Cloudy 50 10 40 4.4 68 68 N 14 22 30.04 1017 10 16.0934 0 0.0254
11:56 pm 23:56 Cloudy 49 9.4 39 3.9 69 69 N 15 24 30.04 1017 10 16.0934 0 0

Powered by AerisWeather